Regional Weather Roundup
Issued by NWS Wakefield, VA

Home | Current Version | Previous Version | Graphics & Text | Print | Product List | Glossary On
Versions: 1 2 3 4 5 6 7 8 9 10 11 12 13 14 15 16 17 18 19 20 21 22 23 24 25 26 27 28 29 30 31 32 33 34 35 36 37 38 39 40 41 42 43 44 45 46 47 48 49 50
000
ASUS41 KAKQ 181715
RWRAKQ

REGIONAL WEATHER ROUNDUP
NATIONAL WEATHER SERVICE WAKEFIELD VA
1200 PM EST SUN FEB 18 2018

Note: "fair" indicates few or no clouds below 12,000 feet with no
significant weather and/or obstructions to visibility. * = Denotes
station may not report precipitation (e.g., rain,snow,etc.),
thunder or fog.

VAZ042-051-052>054-056-181800-
NORTHERN VIRGINIA

CITY           SKY/WX    TMP DP  RH WIND       PRES   REMARKS
WASH NATIONAL  FAIR      47  31  53 N8        30.43R
DULLES         FAIR      45  31  58 W3        30.42R
FORT BELVOIR   FAIR      47  28  47 NW7G21    30.42R
QUANTICO       FAIR      49  31  49 N9        30.44R
FREDERICKSBRG* FAIR      49  31  49 N8        30.42S
STAFFORD*      FAIR      50  32  51 NW16      30.47R
WARRENTON      FAIR      49  28  44 NW8       30.42R
CULPEPER*      FAIR      48  30  49 N6        30.43S
MANASSAS*      PTSUNNY   46  30  53 NW6       30.43R
LEESBURG*      FAIR      41  32  70 NW9       30.41S
WINCHESTER     PTSUNNY   41  28  60 W9        30.42R
FRONT ROYAL*   FAIR      43  28  56 W3        30.39R
LURAY*         PTSUNNY   43  28  56 NW3       30.40R
$$

VAZ048-049-060>072-079>083-181800-
CENTRAL AND SOUTH CENTRAL VIRGINIA

CITY           SKY/WX    TMP DP  RH WIND       PRES   REMARKS
RICHMOND       FAIR      51  37  58 NE10      30.42R
CHESTERFIELD*  FAIR      48  37  65 VRB6      30.42S
PETERSBURG*    FAIR      48  36  61 E5        30.42S
HANOVER        FAIR      50  36  58 E7        30.43R
TAPPAHANNOCK*  FAIR      51  34  53 N14       30.43R
QUINTON*       FAIR      49  35  58 N8G18     30.42R
CHARLOTTSVILLE FAIR      47  37  68 E7        30.40R
GORDONSVILLE*  FAIR      43  37  78 NE5       30.41S
ORANGE*        FAIR      45  32  61 CALM      30.42R
LOUISA*        FAIR      46  34  61 NE8       30.46S
BUMPASS*       FAIR      47  34  60 N6        30.42R
FARMVILLE*     FAIR      49  46  88 NE9       30.40R
CREWE*         FAIR      46  43  90 NE5       30.41S
FORT PICKETT*  FAIR      47  42  81 E8        30.41R
CHASE CITY*    FAIR      54  35  48 N8        30.38S
CLARKSVILLE*   FAIR      54  36  50 CALM      30.38S
SOUTH HILL*    FAIR      52  41  64 NE7       30.44R
LAWRENCEVILLE* PTSUNNY   50  40  68 E7        30.40R
EMPORIA*       FAIR      50  39  66 NE9       30.42S
$$

VAZ088>098-181800-
SOUTHEAST VIRGINIA

CITY           SKY/WX    TMP DP  RH WIND       PRES   REMARKS
NORFOLK        FAIR      48  38  68 N10       30.41R
VIRGINIA BEACH FAIR      50  32  50 NE18G25   30.40R
NORFOLK NAVAL  FAIR      48  35  60 NE14      30.43R
WEST POINT*    FAIR      51  34  53 N8        30.44R
SALUDA*        FAIR      49  33  53 N13       30.42S
NEWPORT NEWS   FAIR      51  38  60 NE7       30.41R
LANGLEY AFB    FAIR      48  36  62 NE13      30.42R
FORT EUSTIS    FAIR      51  34  52 N9        30.38R
WILLIAMSBURG*  FAIR      63  46  55 NE7       30.41F
HR EXEC AP*    FAIR      50  35  56 NE10G21   30.42R
FRANKLIN*      FAIR      51  37  57 NE12G17   30.41F
US460-WAKEFLD  FAIR      51  38  60 N9        30.41R
$$

VAZ020-022-025-037-045-181800-
WEST CENTRAL AND SOUTHWEST VIRGINIA

CITY           SKY/WX    TMP DP  RH WIND       PRES   REMARKS
STAUNTON*      FAIR      44  29  54 CALM      30.41R
WAYNESBORO*    FAIR      45  30  55 CALM      30.38R
HOT SPRINGS VA FAIR      32  26  77 CALM      30.32R
LYNCHBURG      FAIR      51  26  37 SE3       30.38R
DANVILLE       FAIR      53  34  48 VRB6      30.38S
SOUTH BOSTON*  FAIR      55  30  39 NE3       30.39S
MARTINSVILLE   FAIR      52  29  41 NE3       30.40S
ROANOKE        FAIR      50  27  40 VRB6      30.40S
BLACKSBURG     FAIR      45  28  51 NW5       30.38F
DUBLIN*        FAIR      45  29  54 CALM      30.37S
MARION*        FAIR      48 -19   5 E3        30.35F
HILLSVILLE*    FAIR      43  26  50 CALM      30.33R
RICHLANDS*     FAIR      43  29  57 SE3       30.32F
WISE*          FAIR      43  32  65 E7        30.32F
ABINGDON*      FAIR      47  31  53 E8        30.33F
$$

MDZ021>025-VAZ099-100-181800-
SOUTHERN MARYLAND AND THE DELMARVA PENINSULA

CITY           SKY/WX    TMP DP  RH WIND       PRES   REMARKS
PATUXENT RIVER PTSUNNY   48  33  56 N15G21    30.42R
BAY BRIDGE APT FAIR      43  32  65 CALM      30.42R
LEONARDTOWN    PTSUNNY   46  30  53 W10       30.43R
DOVER          FAIR      43  31  61 NW15      30.39S
GEORGETOWN     FAIR      46  29  51 N10G18    30.40R
EASTON         MOSUNNY   46  32  57 N8        30.45R
CAMBRIDGE      PTSUNNY   45  32  61 NW8       30.42R
SALISBURY      CLOUDY    45  32  60 N10       30.41R
OCEAN CITY     PTSUNNY   46  32  58 NW10G17   30.40S
WALLOPS ISLAND FAIR      51  32  48 NW8       30.41S
ACCOMACK*      PTSUNNY   48  34  60 NW10G20   30.42S
$$

NCZ012>017-030>032-181800-
NORTH CENTRAL AND EASTERN NORTH CAROLINA

CITY           SKY/WX    TMP DP  RH WIND       PRES   REMARKS
ROANOKE RAPIDS FAIR      52  43  71 NE9       30.40R
RALEIGH        FAIR      55  37  50 NE10      30.38R
ELIZABETH CITY FAIR      52  40  63 NE16      30.40R
AHOSKIE*       FAIR      51  41  68 E5        30.40S
EDENTON*       FAIR      55  43  63 NE7       30.40S
CURRITUCK*     FAIR      48  35  60 N16G26    30.42R
KILL DEVIL HLS FAIR      47  41  78 N9        30.39S
MANTEO         FAIR      49  38  65 NE15G21   30.40S
CAPE HATTERAS  FAIR      52  41  66 NE13G24   30.39R
TARBORO*       NOT AVBL
GOLDSBORO      FAIR      60  38  45 E14       30.34F
WASHINGTON     FAIR      57  41  55 NE12G18   30.38R
GREENVILLE     FAIR      59  37  44 NE8G17    30.37S
NEW BERN       FAIR      61  40  45 NE14      30.36S
WILMINGTON     PTSUNNY   64  45  49 NE14      30.33S
$$

VAZ048-181800-
ELSEWHERE

CITY           SKY/WX    TMP DP  RH WIND       PRES   REMARKS
HARRISBURG PA  PTSUNNY   41  28  60 W5        30.37R
BALTIMORE      FAIR      43  35  73 W6        30.41R
ANNAPOLIS      FAIR      44  36  73 N3        30.41R
ANDREWS AFB    MOSUNNY   34  32  95 NW9       30.42R
PHILADELPHIA   FAIR      42  25  50 NW13      30.38S
HENDERSON NC   FAIR      52  35  51 NW5       30.38S
GREENSBORO     FAIR      53  31  42 NE13      30.36S
ROCKY MOUNT    FAIR      59  39  47 NE12      30.38R
$$

VAZ100-181800-
MARINE

STATION/POSITION TIME  TEMP    WIND        PRES    WAVE   SWELL
                       AIR SEA DIR/SP/G            HT/PER HT/PER
                 (UTC) (F)     (DEG/KT/KT) (MB)    (FT/S) (FT/S)
BRANDYWINE LGT   1642   39     330/ 12/ 18 1029.6R
CAPE MAY NJ      1642   41 40  330/ 13/ 19 1028.8R
LEWES DE         1642   40 42  340/ 14/ 18 1029.5R
15NM E FENWICK I 1650   40 43  310/ 19/ 23 1029.2R   4/ 5   2/ 8
OCEAN-CITY-INLET 1642   43 40  360/ 12/ 14 1029.9R
WACHAPREAGUE VA  1642   47 46  340/  7/ 15 1030.0R
THOMAS POINT MD  1700   42 38  270/  3/  3   N/A
GOOSES REEF MD   1700      39                N/A     0
COVE POINT MD    1642   42      50/  8/ 10 1030.9R
SOLOMONS ISLAND  1642   46 40  290/  7/ 11 1029.8R
BISHOPS HEAD MD  1642   45 44  340/  6/  9 1030.6R
POTOMAC MD       1700   46 40  120/ 12/ 16 1029.8    1/ 2
CAMBRIDGE MD     1642   46 43              1030.8R
LEWISETTA VA     1642   46 44  360/ 12/ 16 1030.4R
RAPPAHANNOCK LGT 1642           20/  9/ 10 1030.7R
STINGRAY PT      1700   42 42   80/  8/ 10 1031.6    1
YORK RVR RNG VA  1642   44      50/ 17/ 19 1030.3R
YORKTOWN VA      1642   47 44   20/ 10/ 17 1029.3R
DOMINION TERM VA 1642   48      50/  5/ 11 1030.2R
KIPTOPEKE VA     1642      43   20/ 18/ 27   N/A
CAPE HENRY VA    1642   46      10/ 14/ 19   N/A
S CRANEY ISL VA  1642   45      40/ 14/ 23 1029.8R
CAPE HENRY BUOY  1700      43                N/A     3/ 6
1ST LANDING BUOY 1700   44 43   30/ 16/ 19 1029.8    2/ 3
CAPE CHARLES BUO 1651      43                N/A     3/ 6
64NM E OF VA BCH 1650   46 50   10/ 25/ 29 1028.8R   7/ 6
DUCK PIER NC     1642   44 44   10/  9/ 12 1029.0R
44100 DUCK FRF   1645      45                N/A     3/ 6
44056 DUCK FRF   1700      45                N/A     3/ 6
OREGON INLET NC  1642   47 48   10/ 12/ 19 1029.0R
HATTERAS NC      1642   49 56   30/ 17/ 24 1028.7R
DIAMOND SHLS NC  1650   52 71   20/ 23/ 29 1028.6R   5/ 5   2/13
CAPE LOOKOUT NC  1700           50/ 22/ 24 1028.4R
$$



USA.gov is the U.S. government's official web portal to all federal, state and local government web resources and services.